GW1942 Weather Reports


time (UTC)temp
F
wind
direction
speed
knots
gust
knots
rain 1hr
in
rain 24hr
in
rain mn
in
humidity
%
barometer
mb
20260901154555 58 161 0.0 1.7 0.00 0.00 0.00 54 1011.2
20260901153056 57 161 0.0 0.0 0.00 0.00 0.00 56 1011.3
20260901151549 54 162 0.0 0.0 0.00 0.00 0.00 60 1011.5
20260901150049 54 162 0.0 0.0 0.00 0.00 0.00 62 1011.6
20260901144542 51 161 0.0 0.9 0.00 0.00 0.00 67 1011.6
20260901143042 49 162 0.0 0.0 0.00 0.00 0.00 70 1011.7
20260901141541 47 161 0.0 0.0 0.00 0.00 0.00 73 1011.7
20260901140039 43 161 0.0 0.0 0.00 0.00 0.00 78 1011.7
20260901134539 41 161 0.0 0.0 0.00 0.00 0.00 80 1011.8
20260901133037 39 161 0.0 0.0 0.00 0.00 0.00 83 1011.6
20260901131537 40 161 0.0 0.0 0.00 0.00 0.00 80 1011.5
20260901130036 40 161 0.0 0.0 0.00 0.00 0.00 82 1011.5
20260901124532 40 161 0.0 0.0 0.00 0.00 0.00 80 1011.4
20260901123034 41 161 0.0 0.0 0.00 0.00 0.00 79 1011.4
20260901121527 41 162 0.0 0.0 0.00 0.00 0.00 79 1011.2
20260901120025 42 161 0.0 0.0 0.00 0.00 0.00 78 1011.1
20260901114524 41 161 0.0 0.0 0.00 0.00 0.00 78 1011.2
20260901113024 41 161 0.0 0.0 0.00 0.00 0.00 79 1011.2
20260901111522 42 162 0.0 0.0 0.00 0.00 0.00 77 1011.2
20260901110020 42 161 0.0 0.0 0.00 0.00 0.00 76 1011.1
20260901104518 43 161 0.0 0.0 0.00 0.00 0.00 77 1010.9
20260901103016 42 161 0.0 0.0 0.00 0.00 0.00 76 1010.9
20260901101513 43 161 0.0 0.0 0.00 0.00 0.00 75 1010.8
20260901100011 44 162 0.0 0.0 0.00 0.00 0.00 74 1010.8
20260901094508 45 161 0.0 0.0 0.00 0.00 0.00 72 1010.8
20260901093007 45 161 0.0 0.0 0.00 0.00 0.00 73 1010.7
20260901091504 45 161 0.0 0.0 0.00 0.00 0.00 72 1010.7
20260901090006 45 161 0.0 0.0 0.00 0.00 0.00 72 1010.4
20260901084503 46 161 0.0 0.0 0.00 0.00 0.00 70 1010.5
20260901083100 47 161 0.0 0.0 0.00 0.00 0.00 70 1010.6
20260901081558 47 162 0.0 0.0 0.00 0.00 0.00 69 1010.5
20260901080057 48 162 0.0 0.9 0.00 0.00 0.00 69 1010.4
20260901074606 47 162 0.0 1.7 0.00 0.00 0.00 69 1010.5
20260901073052 48 161 0.0 0.9 0.00 0.00 0.00 68 1010.4
20260901071553 49 161 0.0 1.7 0.00 0.00 0.00 67 1010.4
20260901070050 49 161 0.0 0.0 0.00 0.00 0.00 66 1010.4
20260901064548 49 161 0.0 0.0 0.00 0.00 0.00 66 1010.5
20260901063046 50 161 0.0 0.0 0.00 0.00 0.00 66 1010.5
20260901061544 50 161 0.0 0.0 0.00 0.00 0.00 64 1010.7
20260901060041 51 161 0.0 0.9 0.00 0.00 0.00 64 1010.4
20260901054541 51 161 0.0 1.7 0.00 0.00 0.00 62 1010.6
20260901053050 52 161 0.0 0.0 0.00 0.00 0.00 62 1010.6
20260901051541 52 161 0.0 0.0 0.00 0.00 0.00 62 1010.6
20260901050040 53 161 0.0 1.7 0.00 0.00 0.00 60 1010.6
20260901044540 54 161 0.0 0.9 0.00 0.00 0.00 60 1010.6
20260901043040 56 161 0.0 1.7 0.00 0.00 0.00 56 1010.7
20260901041543 59 162 0.0 0.9 0.00 0.00 0.00 53 1010.6
20260901040045 59 161 0.0 0.9 0.00 0.00 0.00 52 1010.6
20260901034537 61 161 0.0 1.7 0.00 0.00 0.00 49 1010.5
20260901033037 64 161 0.0 1.7 0.00 0.00 0.00 45 1010.4
20260901031536 65 161 0.9 2.6 0.00 0.00 0.00 43 1010.3
20260901030035 66 161 0.9 3.5 0.00 0.00 0.00 41 1010.1
20260901024535 67 161 2.6 4.3 0.00 0.00 0.00 39 1009.9
20260901023034 70 161 0.9 2.6 0.00 0.00 0.00 36 1009.8
20260901021534 73 161 0.9 1.7 0.00 0.00 0.00 35 1009.8
20260901020033 76 161 0.0 2.6 0.00 0.00 0.00 31 1009.8
20260901014532 77 161 1.7 3.5 0.00 0.00 0.00 30 1010.0
20260901013050 78 162 0.9 3.5 0.00 0.00 0.00 29 1010.1
20260901011537 81 161 0.9 4.3 0.00 0.00 0.00 27 1010.1
20260901010030 81 162 2.6 7.8 0.00 0.00 0.00 27 1010.1
20260901004529 81 161 4.3 6.1 0.00 0.00 0.00 26 1010.2
20260901003029 82 161 0.9 3.5 0.00 0.00 0.00 26 1010.3
20260901001530 82 161 1.7 6.1 0.00 0.00 0.00 25 1010.5
20260901000029 81 161 1.7 7.0 0.00 0.00 0.00 26 1010.6
20260831234523 82 161 2.6 5.2 0.00 0.00 0.00 25 1010.6
20260831233023 82 161 2.6 6.1 0.00 0.00 0.00 25 1010.6
20260831231517 82 161 0.9 4.3 0.00 0.00 0.00 25 1010.8
20260831230018 82 161 0.9 3.5 0.00 0.00 0.00 25 1011.1
20260831224513 82 161 0.0 3.5 0.00 0.00 0.00 26 1011.2
20260831223013 81 161 0.9 3.5 0.00 0.00 0.00 25 1011.4
20260831221510 81 161 0.9 3.5 0.00 0.00 0.00 27 1011.4
20260831220008 81 161 0.9 3.5 0.00 0.00 0.00 25 1011.8
20260831214506 79 161 0.9 5.2 0.00 0.00 0.00 27 1012.0
20260831213001 79 161 0.9 3.5 0.00 0.00 0.00 28 1012.4
20260831211559 79 161 0.9 6.1 0.00 0.00 0.00 28 1012.6
20260831210055 78 161 0.0 4.3 0.00 0.00 0.00 29 1012.9
20260831204600 78 161 0.9 4.3 0.00 0.00 0.00 28 1013.2
20260831203116 78 161 2.6 4.3 0.00 0.00 0.00 28 1013.5
20260831201601 76 161 0.0 2.6 0.00 0.00 0.00 30 1013.6
20260831200134 77 161 2.6 7.8 0.00 0.00 0.00 30 1013.6
20260831194551 76 161 0.9 2.6 0.00 0.00 0.00 30 1014.0
20260831193144 78 161 0.9 2.6 0.00 0.00 0.00 29 1014.3
20260831191539 76 161 0.9 2.6 0.00 0.00 0.00 30 1014.6
20260831190040 75 161 0.9 4.3 0.00 0.00 0.00 31 1014.9
20260831184534 74 161 0.0 2.6 0.00 0.00 0.00 32 1015.3
20260831183030 72 161 0.9 2.6 0.00 0.00 0.00 34 1015.7
20260831181531 71 161 0.9 4.3 0.00 0.00 0.00 34 1015.7
20260831180024 70 161 0.9 2.6 0.00 0.00 0.00 36 1016.0
20260831174521 67 161 0.9 3.5 0.00 0.00 0.00 39 1016.4
20260831173020 67 161 1.7 3.5 0.00 0.00 0.00 39 1016.6
20260831171518 65 161 0.9 1.7 0.00 0.00 0.00 41 1016.7
20260831170016 64 161 0.0 2.6 0.00 0.00 0.00 43 1016.9
20260831164518 64 161 0.0 0.9 0.00 0.00 0.00 44 1017.1
20260831163017 62 161 0.0 0.9 0.00 0.00 0.00 47 1017.4
20260831161511 60 161 0.0 1.7 0.00 0.00 0.00 48 1017.5
20260831160008 60 161 0.0 0.0 0.00 0.00 0.00 48 1017.5